Theta_e
298 300 301 302 306 313 316 316 318 325 327 325 324 325 328 327 327 326 325 324 326 327 327 327 326 323 321 318 318 316 315 312 310 305 303 300 299 293 291 292 292 291 290
299 301 301 302 305 312 316 315 317 319 321 320 322 323 326 327 327 327 327 326 327 327 325 324 317 315 314 313 313 312 310 309 308 304 299 297 292 290 291 291 290 289 289
301 300 301 302 304 308 316 317 314 318 318 318 318 320 323 324 323 324 323 324 324 319 315 313 314 312 312 311 309 309 306 302 298 295 293 292 291 290 290 289 288 288 287
300 299 300 302 303 306 312 317 319 317 318 319 320 320 321 319 316 316 316 316 315 314 314 313 311 310 310 308 305 300 295 293 292 292 292 293 292 290 289 288 287 287 286
299 299 300 303 304 306 309 316 316 319 320 320 320 320 316 316 316 315 315 315 315 314 309 307 307 304 300 296 292 292 293 293 293 293 292 290 290 289 289 288 287 287 286
297 299 300 303 305 307 309 313 313 317 318 316 318 315 318 317 316 316 315 315 311 310 307 299 297 293 291 292 293 293 293 292 293 292 291 290 289 289 288 287 286 286 285
297 299 300 302 304 306 309 311 311 312 313 315 312 309 311 311 314 312 310 306 303 300 295 292 291 291 292 293 292 292 292 292 291 290 289 289 288 287 286 285 284 283 283
297 298 299 301 304 302 309 309 309 309 311 308 311 304 302 303 301 302 301 299 296 296 295 293 292 292 291 292 293 292 291 290 290 289 288 288 287 286 284 283 282 281 281
296 296 300 301 301 300 304 306 305 304 305 308 305 308 309 299 300 299 299 296 293 292 290 290 293 295 293 291 290 290 289 289 289 288 288 286 285 284 282 281 281 280 279
295 297 300 299 296 298 298 301 301 300 301 302 301 300 301 300 299 299 299 297 295 293 296 294 291 292 292 289 288 288 288 288 287 287 286 285 283 282 281 280 279 278 278
295 294 295 295 294 295 296 295 298 298 298 298 299 298 297 297 296 297 297 297 297 294 293 295 293 288 288 287 287 287 287 286 286 285 284 282 281 280 279 278 278 277 276
292 292 292 292 293 293 294 294 297 297 297 296 296 295 295 295 295 293 292 292 295 297 294 290 288 287 287 287 286 286 286 286 284 283 282 280 279 279 278 277 277 276 275
291 291 290 291 290 291 293 293 294 295 295 294 293 292 291 290 290 291 293 294 290 289 288 287 287 287 286 285 285 284 284 283 283 282 281 279 279 278 277 276 275 274 274
292 292 291 291 291 291 293 293 294 294 294 291 291 290 290 293 295 293 290 288 287 287 287 287 286 285 285 284 284 283 283 282 282 281 280 279 278 276 275 274 273 273 272
293 294 294 293 291 291 291 292 293 293 293 294 295 296 295 294 291 289 288 287 287 287 287 286 285 284 284 283 282 282 281 281 281 280 279 277 276 274 274 273 272 272 271
295 295 295 295 294 293 293 293 293 293 293 294 294 294 292 288 287 287 287 286 286 286 285 285 284 284 283 282 281 280 280 280 280 279 278 275 274 273 272 271 271 271 272
294 294 294 294 292 291 293 293 292 291 290 289 288 287 287 287 287 287 286 286 286 286 286 285 284 282 281 280 280 280 280 279 279 277 275 273 272 271 271 271 271 271 271
288 288 288 288 288 288 288 288 288 288 289 289 288 288 287 287 287 287 287 287 286 286 285 283 282 281 280 280 279 278 278 278 277 275 274 272 272 272 271 271 270 270 270
289 289 290 290 289 289 288 287 288 288 288 288 288 288 287 286 286 286 286 286 285 285 284 282 281 281 280 279 278 278 278 277 276 275 273 272 272 271 270 270 270 269 269
291 292 292 292 292 292 291 291 289 288 288 288 287 287 287 286 286 287 287 286 285 284 283 282 282 282 279 278 277 277 278 277 277 274 272 271 270 270 269 269 268 268 268
292 292 291 292 292 292 292 292 291 291 290 288 286 285 284 285 285 286 285 284 284 284 284 283 283 280 278 277 277 277 278 277 273 272 271 270 269 269 269 268 268 267 267
292 293 292 292 292 292 292 291 290 290 290 289 288 287 285 285 285 285 286 286 285 284 282 281 281 279 278 276 276 277 276 273 271 270 269 269 269 268 268 267 267 266 266
294 294 294 293 293 293 292 292 292 291 290 290 289 289 289 290 289 288 287 285 284 283 282 281 279 278 276 276 276 276 273 270 270 269 269 269 268 268 267 266 266 266 266
294 294 294 294 293 293 293 292 292 291 291 291 291 291 291 291 290 288 286 284 283 282 281 279 278 276 275 276 275 272 270 269 269 269 268 268 267 267 266 266 266 266 266
295 294 293 293 293 293 292 291 291 291 291 291 291 291 290 290 289 287 286 284 283 281 279 277 276 274 275 274 271 269 269 269 269 269 268 268 267 266 266 266 266 265 265
295 294 294 293 293 293 292 291 291 291 291 291 291 290 289 288 287 286 284 283 281 279 277 276 274 275 274 271 269 269 269 269 268 268 267 267 267 266 266 265 265 265 265
Wind_Speed
17 19 21 19 17 26 31 30 27 33 30 26 29 37 37 34 32 33 33 35 43 42 40 40 38 36 33 28 23 17 11 14 18 16 9 9 11 9 7 8 9 10 10
18 16 18 20 16 18 24 25 21 24 20 22 18 23 39 35 34 35 35 36 40 41 41 32 31 25 22 17 17 16 15 11 10 9 15 13 10 8 7 6 7 8 9
18 16 16 19 19 16 15 26 28 26 21 23 22 25 32 28 27 35 38 39 35 28 27 26 22 19 16 13 12 9 6 7 10 11 14 12 8 4 4 4 5 6 7
19 20 15 16 18 16 17 17 18 27 29 30 31 24 11 17 18 19 21 21 19 24 23 21 22 20 17 14 11 11 14 12 11 12 11 9 7 4 2 2 3 4 5
17 20 20 12 14 15 16 14 13 24 31 29 26 19 25 23 23 26 23 20 24 28 26 23 21 19 16 15 14 15 13 12 11 10 8 7 6 3 2 3 2 3 3
16 18 18 16 9 11 14 12 11 16 22 23 15 35 33 30 32 30 29 31 33 31 30 25 22 20 20 18 16 14 14 12 10 7 6 5 4 1 1 3 4 4 3
17 17 17 13 12 9 8 10 10 10 11 11 24 38 40 37 41 37 34 34 32 29 29 25 24 20 18 17 16 14 12 10 8 5 4 4 2 2 3 5 6 5 5
17 17 15 12 11 9 7 8 9 10 13 17 20 16 17 20 20 27 31 33 32 29 26 23 22 22 18 15 12 11 10 8 7 5 3 3 3 4 4 5 6 8 8
14 14 13 13 9 8 8 10 11 15 20 21 24 25 22 29 29 30 33 34 33 28 24 22 19 15 15 13 9 8 8 7 5 3 3 4 4 5 6 7 7 8 7
11 10 12 11 6 7 9 13 15 17 22 28 32 32 34 35 31 30 32 34 33 31 24 19 18 13 10 11 9 7 5 4 2 3 4 6 7 7 7 7 7 7 8
8 7 7 5 5 9 14 18 22 28 33 35 35 36 37 35 34 32 29 28 26 27 25 19 16 15 12 9 7 5 2 2 1 4 5 5 6 7 7 7 8 7 5
4 3 1 3 7 12 18 24 29 33 36 39 41 40 36 33 31 27 27 27 24 19 21 21 17 12 8 6 5 2 1 1 2 3 4 4 5 7 8 8 7 7 7
7 7 7 8 13 17 22 28 33 35 38 38 38 38 35 31 31 29 26 23 21 20 19 17 12 9 6 5 3 1 2 3 3 4 4 6 7 8 8 7 6 7 8
19 18 16 15 17 21 26 29 31 31 33 33 32 31 32 31 28 26 23 21 21 19 15 11 8 7 5 3 1 1 1 2 3 5 6 7 7 6 5 6 6 7 8
22 22 21 19 19 21 22 21 22 25 25 26 27 25 26 25 23 23 21 18 14 12 10 9 7 4 1 1 2 2 3 3 5 6 7 7 6 5 4 4 5 7 8
18 17 17 16 15 14 17 19 16 14 12 14 14 13 15 17 19 18 17 14 12 9 8 5 4 4 4 5 5 4 4 5 6 6 7 6 5 4 4 5 7 9 12
15 17 14 10 8 7 7 7 7 10 12 12 13 15 14 14 14 13 12 11 8 6 7 6 7 8 7 6 6 7 7 6 5 5 5 4 3 4 6 8 11 13 14
4 5 6 6 6 7 7 8 7 6 8 12 13 12 13 13 11 10 9 10 9 10 8 9 8 8 7 8 9 8 7 6 5 5 5 5 5 7 8 10 12 14 16
4 4 5 5 5 6 6 7 8 9 9 9 10 12 13 12 12 11 11 10 9 9 9 9 8 8 9 9 9 8 7 6 6 6 7 7 7 7 9 11 13 15 17
8 7 7 7 7 7 6 6 6 7 8 10 10 9 11 14 15 13 7 7 7 7 8 9 10 11 11 10 10 9 8 8 9 8 7 7 6 8 10 12 14 16 18
11 11 10 9 7 6 6 5 6 7 8 8 9 11 11 11 10 11 11 9 9 12 13 14 13 12 11 11 10 10 10 10 9 8 6 6 6 8 11 14 16 17 18
15 14 12 9 8 7 7 8 9 9 10 11 12 13 15 15 14 13 13 15 17 17 16 15 14 13 13 12 11 11 11 9 7 6 5 6 8 11 13 15 16 16 16
18 17 15 12 12 12 14 14 15 15 14 15 15 14 16 16 15 16 18 19 19 20 20 18 16 15 14 12 12 11 9 7 6 5 5 8 10 13 14 14 14 14 14
22 21 20 18 16 16 16 18 19 18 17 17 17 17 18 20 19 19 21 21 22 22 21 18 16 14 13 12 11 9 8 7 5 4 7 10 12 13 13 12 12 15 19
25 24 23 22 20 18 17 18 18 18 17 17 17 18 20 21 22 22 22 22 22 20 17 16 15 13 13 11 10 9 7 4 5 7 9 10 11 11 11 13 16 18 19
25 24 22 21 20 17 17 16 15 16 16 16 17 18 19 20 20 21 21 20 19 17 16 15 14 13 12 11 9 6 5 6 7 8 9 9 9 10 13 15 18 21 23
Wind_Direction
284 289 294 295 280 257 261 263 260 254 235 234 255 248 242 236 238 241 243 240 237 240 243 245 245 235 226 210 197 180 176 156 149 138 183 209 229 250 275 290 299 300 299
281 284 297 293 289 256 253 261 260 257 253 262 248 262 254 246 235 238 239 233 232 232 240 230 211 192 178 173 168 160 157 154 132 175 200 206 209 234 259 292 307 321 324
291 290 295 297 291 269 256 250 252 253 258 260 257 268 251 244 245 234 224 219 218 211 193 169 169 172 163 153 152 139 111 147 177 193 195 193 193 225 274 301 323 320 310
303 304 295 293 294 287 268 265 261 252 249 255 250 254 223 198 156 155 164 152 153 167 170 173 170 169 162 159 137 154 171 168 165 181 184 176 186 198 224 274 279 288 294
300 308 308 289 287 283 275 267 243 246 234 245 222 211 160 158 163 164 166 169 181 183 169 165 157 144 130 137 160 156 148 152 157 165 165 159 148 158 228 269 298 319 299
296 304 311 298 280 273 270 267 258 232 245 229 219 184 185 182 183 186 181 180 175 171 162 145 131 139 145 148 148 143 138 135 133 141 154 153 141 131 303 315 333 335 324
296 303 307 306 284 264 261 268 254 226 239 235 206 188 175 179 186 183 174 162 152 143 135 132 137 141 144 140 136 134 131 127 131 135 142 124 89 42 0 344 333 331 331
303 306 308 299 282 267 235 238 234 198 188 189 188 178 158 149 161 156 146 139 131 127 126 135 137 134 129 127 127 128 126 131 118 104 91 54 31 10 354 344 338 342 338
311 314 308 292 276 259 221 210 195 190 174 171 166 176 185 137 140 135 132 124 116 123 129 124 122 126 136 133 129 133 124 107 96 72 52 29 16 10 3 348 339 331 334
313 312 299 285 262 227 207 185 175 175 164 160 153 148 144 137 131 133 130 127 128 135 138 136 134 128 140 148 142 120 103 96 71 28 10 6 6 2 358 346 338 340 354
314 315 295 276 236 201 182 164 159 153 146 141 137 132 128 126 128 129 129 128 130 135 138 143 154 154 144 138 134 128 101 45 18 10 6 0 355 352 349 345 343 344 350
351 335 232 183 188 177 168 158 152 150 145 138 133 127 128 130 129 129 126 131 136 143 158 152 147 143 139 142 149 120 26 11 19 7 352 343 343 344 345 341 337 338 340
58 83 107 133 153 156 153 151 145 144 138 136 135 137 139 137 133 137 144 147 154 152 147 142 142 144 152 145 142 93 39 27 2 334 332 342 348 339 327 328 337 344 342
81 82 92 112 127 135 137 136 138 141 142 143 138 133 134 143 148 151 156 157 156 155 152 151 144 151 159 159 127 352 338 320 313 325 330 332 323 318 326 338 338 343 340
93 98 101 100 103 110 118 122 125 129 138 142 144 149 153 156 160 160 158 156 153 149 153 164 164 161 179 237 244 250 276 298 315 319 321 319 318 325 325 317 329 332 335
80 96 106 112 121 131 137 136 135 131 135 144 152 159 163 159 154 155 154 158 162 163 173 185 201 232 243 245 244 259 285 292 299 310 310 305 306 305 316 338 335 337 340
101 102 102 107 118 127 134 136 146 151 150 148 146 147 153 159 165 165 167 174 178 205 221 227 231 240 246 250 264 268 264 268 281 292 294 299 301 323 339 339 334 334 333
150 143 147 150 149 148 146 145 143 161 164 164 165 166 167 174 182 188 203 213 219 228 234 235 238 244 252 257 258 257 264 277 291 308 304 297 307 318 322 324 325 324 323
160 166 159 156 151 147 147 152 163 169 172 180 190 194 194 200 210 216 230 233 234 232 230 234 249 262 264 260 259 264 275 288 299 296 288 289 296 302 309 314 316 317 318
200 190 185 183 176 170 172 180 188 194 201 202 204 210 221 221 223 228 231 232 241 242 255 265 274 272 263 262 265 270 279 286 287 278 273 275 286 299 306 309 312 315 318
218 216 212 209 204 201 203 208 219 229 233 229 223 224 225 230 240 248 241 250 262 270 272 272 273 264 262 263 265 269 271 270 261 254 259 272 289 298 304 310 313 316 319
224 221 224 223 231 249 259 257 251 247 245 244 242 243 242 240 238 250 263 265 266 268 271 274 273 265 260 255 255 259 262 252 242 242 257 280 297 304 306 309 315 320 324
232 235 237 240 244 250 258 265 268 268 261 251 246 246 257 261 255 257 258 259 262 265 266 266 260 253 246 244 246 248 239 228 224 241 277 295 299 303 309 314 322 326 325
232 233 235 237 240 247 256 260 260 261 258 251 247 247 250 258 261 257 255 255 257 259 258 253 247 239 234 238 236 225 218 214 229 267 283 292 303 309 315 325 329 328 326
231 232 232 234 238 247 255 257 256 255 250 245 241 244 248 251 253 252 252 252 253 251 245 241 233 226 231 225 212 207 209 229 252 273 289 301 308 314 322 329 330 328 327
228 228 231 233 238 254 265 262 254 249 244 241 245 248 249 250 249 251 251 248 244 235 227 221 217 222 214 202 200 210 229 249 272 292 300 303 310 327 330 328 325 325 328